PILOTS ONLINE: 452    ATC ONLINE: 32

EGPC

Wick Airport

Location

IATA WIC
City Wick
Country  United Kingdom
Latitude 58° 27' 32" N
Longitude 3° 5' 35" W
Elevation 126 ft
Type Medium Airport

Map

Weather

METAR
2014/09/01 13:20
EGPC 011320Z 23010KT 9999 FEW033 BKN045 16/08 Q1017
TAF
No TAF available

Runways

08/26 3399 ft / 148 ft
13/31 5988 ft / 148 ft

Outbound flights

Callsign Flying to Pilot ATD/STD ETA Aircraft

Inbound flights

Callsign Flying from Pilot ATD ETA Aircraft